Flag for U.S.A. Weather past 2 weeks in Wichita Falls, Texas, U.S.A.

Now
57 °F

Fog.


Feels Like: 56 °F
Forecast: 61 / 87 °F
Wind: 6 mph from Southwest

Location: Wichita Falls - Sheppard Air Force Base

Current Time: Mar 31, 2015 at 8:18:22 AM

Latest Report: Mar 31, 2015 at 7:52 AM


Visibility: 3 mi

Pressure: 29.91 "Hg

Humidity: 96%

Dew point: 56 °F

Location of Wichita FallsLocation

Historic Weather in Wichita Falls — Graph

°F

Wichita Falls temperature yesterday

Maximum temperature yesterday: 78 °F (at 3:52 PM)
Minimum temperature yesterday: 45 °F (at 5:52 AM)
Average temperature yesterday: 62 °F

Past Weeks' High & Low Weather Summary

 TemperatureHumidityPressure
High88 °F (Mar 25, 2:52 PM)100% (Mar 22, 7:52 AM)30.24 "Hg (Mar 22, 7:52 AM)
Low40 °F (Mar 27, 6:52 AM)28% (Mar 24, 3:52 PM)29.63 "Hg (Mar 25, 6:52 PM)
Average60 °F69%30.02 "Hg
* Reported Mar 16 6:52 AM — Mar 31 6:52 AM, Wichita Falls, Weather by CustomWeather, © 2015

Note: Actual official high and low records may vary slightly from our data, if they occured in-between our weather recording intervals... More about our weather records

Advertising

Wichita Falls weather history for previous 24 hours

 ConditionsComfort  
Time TempWeatherWind HumidityBarometerVisibility
6:52 AM
Tue, Mar 31
55 °FFog.10 mph96%29.91 "Hg0 mi
5:52 AM56 °FFog.3 mph100%29.91 "Hg0 mi
4:52 AM56 °FFog.No wind100%29.91 "Hg0 mi
3:52 AM59 °FFog.3 mph93%29.92 "Hg3 mi
2:52 AM59 °FFog.6 mph93%29.94 "Hg4 mi
1:52 AM61 °FClear.5 mph93%29.96 "Hg7 mi
12:52 AM60 °FClear.8 mph93%29.96 "Hg7 mi
11:52 PM
Mon, Mar 30
62 °FClear.5 mph90%29.96 "Hg10 mi
10:52 PM64 °FClear.5 mph84%29.97 "Hg10 mi
9:52 PM64 °FClear.9 mph84%29.98 "Hg10 mi
8:52 PM67 °FPartly sunny.10 mph76%29.97 "Hg10 mi
7:52 PM70 °FPartly sunny.10 mph61%29.96 "Hg10 mi
6:52 PM76 °FPartly sunny.9 mph48%29.97 "Hg10 mi
5:52 PM76 °FScattered clouds.9 mph43%29.99 "Hg10 mi
4:52 PM77 °FSunny.6 mph36%30.02 "Hg10 mi
3:52 PM78 °FScattered clouds.5 mph35%30.05 "Hg10 mi
2:52 PM76 °FScattered clouds.6 mph42%30.09 "Hg10 mi
1:52 PM75 °FScattered clouds.10 mph42%30.11 "Hg10 mi
12:52 PM73 °FScattered clouds.12 mph41%30.15 "Hg10 mi
11:52 AM71 °FScattered clouds.13 mph39%30.17 "Hg10 mi
10:52 AM67 °FScattered clouds.9 mph47%30.19 "Hg10 mi
9:52 AM60 °FScattered clouds.7 mph58%30.18 "Hg10 mi
8:52 AM52 °FScattered clouds.9 mph77%30.17 "Hg10 mi
Weather by CustomWeather, © 2015

See weather overviewHow to use our weather pages